Weather History for Placerville, CA

Change the Weather History Date:

Thursday, August 22, 2013

  Actual Average Record
Temperature  
Mean Temperature 76 °F -  
Max Temperature 86 °F 88 °F 89 °F (2012)
Min Temperature 66 °F 54 °F 55 °F (2010)
Cooling Degree Days 11    
Growing Degree Days 26 (Base 50)    
Moisture  
Dew Point 42 °F    
Average Humidity 31    
Maximum Humidity 46    
Minimum Humidity 19    
Precipitation  
Precipitation 0.00 in - - ()
Sea Level Pressure  
Sea Level Pressure 29.98 in    
Wind  
Wind Speed 4 mph (SSW)    
Max Wind Speed 10 mph    
Max Gust Speed 18 mph    
Visibility 10 miles    
Events      
Averages and records for this station are not official NWS values.
T = Trace of Precipitation, MM = Missing Value Source: NWS Daily Summary

Daily Weather History Graph

Daily Weather History Graph

Search for Another Location

Airport:

Trip Planner

Search our weather history database for the weather conditions in past years. The results will help you decide how hot, cold, wet, or windy it might be!

Date:

Astronomy

Aug. 22, 2013 Rise Set
Actual Time 6:23 AM PDT 7:47 PM PDT
Civil Twilight 5:55 AM PDT 8:15 PM PDT
Nautical Twilight 5:22 AM PDT 8:48 PM PDT
Astronomical Twilight 4:47 AM PDT 9:23 PM PDT
Moon 8:36 PM PDT (8/22) 8:16 AM PDT (8/22)
Length of Visible Light 14h 19m
Length of Day
13h 23m
Waning Gibbous, 96% of the Moon is Illuminated
Aug 22
Waning Gibbous
Aug 28
Last Quarter
Sep 5
New
Sep 12
First Quarter
Sep 19
Full

Hourly Weather History & Observations

Time (PDT) Temp. Dew Point Humidity Pressure Visibility Wind Dir Wind Speed Gust Speed Precip Events Conditions
12:15 AM 69.8 °F 42.8 °F 38% 29.98 in 10.0 mi East 3.5 mph - N/A   Overcast
12:35 AM 69.8 °F 42.8 °F 38% 29.98 in 10.0 mi Calm Calm - N/A   Overcast
12:55 AM 68.0 °F 44.6 °F 43% 29.98 in 10.0 mi Calm Calm - N/A   Overcast
1:15 AM 69.8 °F 42.8 °F 38% 29.98 in 10.0 mi Calm Calm - N/A   Overcast
1:35 AM 71.6 °F 42.8 °F 35% 29.97 in 10.0 mi NE 3.5 mph - N/A   Overcast
1:55 AM 69.8 °F 42.8 °F 38% 29.96 in 10.0 mi Calm Calm - N/A   Overcast
2:15 AM 69.8 °F 42.8 °F 38% 29.96 in 10.0 mi ESE 3.5 mph - N/A   Overcast
2:35 AM 69.8 °F 44.6 °F 40% 29.96 in 10.0 mi Calm Calm - N/A   Overcast
2:55 AM 71.6 °F 44.6 °F 38% 29.96 in 10.0 mi Calm Calm - N/A   Overcast
3:15 AM 71.6 °F 42.8 °F 35% 29.96 in 10.0 mi Calm Calm - N/A   Overcast
3:35 AM 71.6 °F 41.0 °F 33% 29.96 in 10.0 mi Calm Calm - N/A   Overcast
3:55 AM 71.6 °F 44.6 °F 38% 29.96 in 10.0 mi East 4.6 mph - N/A   Mostly Cloudy
4:15 AM 68.0 °F 46.4 °F 46% 29.97 in 10.0 mi Calm Calm - N/A   Clear
4:35 AM 68.0 °F 46.4 °F 46% 29.97 in 10.0 mi ESE 4.6 mph - N/A   Clear
4:55 AM 68.0 °F 46.4 °F 46% 29.97 in 10.0 mi ESE 5.8 mph - N/A   Clear
5:15 AM 69.8 °F 46.4 °F 43% 29.96 in 10.0 mi East 9.2 mph - N/A   Unknown
5:35 AM 71.6 °F 44.6 °F 38% 29.96 in 10.0 mi East 6.9 mph - N/A   Clear
5:55 AM 71.6 °F 44.6 °F 38% 29.97 in 10.0 mi East 5.8 mph - N/A   Partly Cloudy
6:15 AM 71.6 °F 44.6 °F 38% 29.97 in 10.0 mi ESE 4.6 mph - N/A   Clear
6:35 AM 71.6 °F 44.6 °F 38% 29.97 in 10.0 mi ESE 6.9 mph - N/A   Clear
6:55 AM 71.6 °F 42.8 °F 35% 29.97 in 10.0 mi ESE 8.1 mph - N/A   Clear
7:15 AM 71.6 °F 41.0 °F 33% 29.98 in 10.0 mi ESE 6.9 mph - N/A   Clear
7:35 AM 71.6 °F 39.2 °F 31% 29.98 in 10.0 mi ESE 5.8 mph - N/A   Partly Cloudy
7:55 AM 73.4 °F 39.2 °F 29% 29.99 in 10.0 mi ESE 4.6 mph - N/A   Scattered Clouds
8:15 AM 75.2 °F 39.2 °F 27% 29.99 in 10.0 mi Calm Calm - N/A   Scattered Clouds
8:35 AM 75.2 °F 41.0 °F 29% 29.99 in 10.0 mi Calm Calm - N/A   Mostly Cloudy
8:55 AM 75.2 °F 39.2 °F 27% 30.00 in 10.0 mi South 3.5 mph - N/A   Partly Cloudy
9:15 AM 77.0 °F 41.0 °F 28% 30.00 in 9.0 mi SSW 6.9 mph - N/A   Clear
9:35 AM 77.0 °F 42.8 °F 29% 30.00 in 9.0 mi SW 5.8 mph - N/A   Clear
9:55 AM 77.0 °F 44.6 °F 32% 30.01 in 10.0 mi South 4.6 mph - N/A   Clear
10:15 AM 80.6 °F 42.8 °F 26% 30.01 in 10.0 mi SSW 5.8 mph - N/A   Clear
10:35 AM 82.4 °F 44.6 °F 26% 30.01 in 10.0 mi SW 5.8 mph - N/A   Clear
10:55 AM 80.6 °F 42.8 °F 26% 30.01 in 10.0 mi SW 6.9 mph - N/A   Clear
11:15 AM 82.4 °F 41.0 °F 23% 30.02 in 10.0 mi SW 8.1 mph - N/A   Clear
11:35 AM 82.4 °F 41.0 °F 23% 30.01 in 10.0 mi WSW 8.1 mph - N/A   Clear
11:55 AM 84.2 °F 41.0 °F 22% 30.01 in 10.0 mi SSW 5.8 mph - N/A   Clear
12:15 PM 82.4 °F 39.2 °F 21% 30.01 in 10.0 mi West 6.9 mph - N/A   Clear
12:35 PM 84.2 °F 41.0 °F 22% 30.00 in 10.0 mi West 4.6 mph - N/A   Clear
12:55 PM 86.0 °F 39.2 °F 19% 30.00 in 10.0 mi WSW 9.2 mph - N/A   Clear
1:15 PM 84.2 °F 37.4 °F 19% 30.00 in 10.0 mi SW 10.4 mph 18.4 mph N/A   Clear
1:35 PM 84.2 °F 37.4 °F 19% 29.99 in 10.0 mi SW 10.4 mph - N/A   Clear
1:55 PM 84.2 °F 39.2 °F 20% 29.99 in 10.0 mi WSW 8.1 mph - N/A   Clear
2:15 PM 84.2 °F 39.2 °F 20% 29.99 in 10.0 mi SW 8.1 mph - N/A   Clear
2:35 PM 84.2 °F 39.2 °F 20% 29.98 in 10.0 mi WSW 6.9 mph 16.1 mph N/A   Clear
2:55 PM 86.0 °F 39.2 °F 19% 29.98 in 10.0 mi SW 9.2 mph - N/A   Clear
3:15 PM 86.0 °F 39.2 °F 19% 29.97 in 10.0 mi WSW 9.2 mph - N/A   Clear
3:35 PM 84.2 °F 39.2 °F 20% 29.96 in 10.0 mi SW 8.1 mph 17.3 mph N/A   Clear
3:55 PM 84.2 °F 41.0 °F 22% 29.96 in 10.0 mi WSW 8.1 mph - N/A   Clear
4:15 PM 84.2 °F 39.2 °F 20% 29.96 in 10.0 mi SW 10.4 mph - N/A   Clear
4:35 PM 82.4 °F 39.2 °F 21% 29.96 in 10.0 mi West 5.8 mph - N/A   Clear
4:55 PM 82.4 °F 41.0 °F 23% 29.96 in 10.0 mi WSW 6.9 mph - N/A   Clear
5:15 PM 82.4 °F 41.0 °F 23% 29.96 in 10.0 mi WSW 6.9 mph - N/A   Clear
5:35 PM 80.6 °F 41.0 °F 24% 29.96 in 10.0 mi WSW 9.2 mph - N/A   Clear
5:55 PM 80.6 °F 41.0 °F 24% 29.95 in 10.0 mi SW 6.9 mph - N/A   Clear
6:15 PM 78.8 °F 41.0 °F 26% 29.95 in 10.0 mi WSW 5.8 mph - N/A   Clear
6:35 PM 77.0 °F 41.0 °F 28% 29.96 in 10.0 mi WSW 4.6 mph - N/A   Clear
6:55 PM 77.0 °F 42.8 °F 29% 29.96 in 10.0 mi WSW 5.8 mph - N/A   Clear
7:15 PM 75.2 °F 42.8 °F 31% 29.96 in 10.0 mi SW 4.6 mph - N/A   Clear
7:35 PM 73.4 °F 41.0 °F 31% 29.96 in 10.0 mi WSW 5.8 mph - N/A   Clear
7:55 PM 71.6 °F 41.0 °F 33% 29.96 in 10.0 mi SW 4.6 mph - N/A   Clear
8:15 PM 71.6 °F 41.0 °F 33% 29.97 in 10.0 mi SW 4.6 mph - N/A   Clear
8:35 PM 69.8 °F 41.0 °F 35% 29.97 in 10.0 mi SSW 4.6 mph - N/A   Clear
8:55 PM 69.8 °F 41.0 °F 35% 29.97 in 10.0 mi South 3.5 mph - N/A   Clear
9:15 PM 68.0 °F 42.8 °F 40% 29.97 in 10.0 mi ESE 3.5 mph - N/A   Clear
9:35 PM 68.0 °F 42.8 °F 40% 29.97 in 10.0 mi ESE 5.8 mph - N/A   Clear
9:55 PM 66.2 °F 42.8 °F 43% 29.97 in 10.0 mi SE 4.6 mph - N/A   Clear
10:15 PM 66.2 °F 42.8 °F 43% 29.97 in 10.0 mi SE 3.5 mph - N/A   Clear
10:35 PM 66.2 °F 42.8 °F 43% 29.97 in 10.0 mi SE 3.5 mph - N/A   Clear
10:55 PM 66.2 °F 42.8 °F 43% 29.97 in 10.0 mi SE 3.5 mph - N/A   Mostly Cloudy
11:15 PM 68.0 °F 41.0 °F 37% 29.97 in 10.0 mi Calm Calm - N/A   Unknown
11:35 PM 68.0 °F 41.0 °F 37% 29.97 in 10.0 mi Calm Calm - N/A   Partly Cloudy
11:55 PM 66.2 °F 41.0 °F 40% 29.97 in 10.0 mi ESE 3.5 mph - N/A   Clear